Location: Archemont
(49.1579°N, 1.7598°E)
Time: 10:42:06
(UTC+00:00)

deb Explorer IX - Pass Details

Date: 15 April 2024
Orbit: 513 x 891 km, 38.7° (Epoch: 23 May)

Event Time Altitude Azimuth Distance (km) Brightness Sun altitude
Rises 15:20:00 0° 252° (WSW) 3,515 ? 32.1°
Reaches altitude 10° 15:22:55 10° 242° (WSW) 2,556 ? 31.6°
Maximum altitude 15:28:10 30° 184° (S) 1,495 ? 30.8°
Drops below altitude 10° 15:33:06 10° 125° (SE) 2,403 ? 30.1°
Sets 15:35:46 0° 114° (ESE) 3,272 ? 29.7°
